Location: Kitchener-Waterloo
(43.4500°N, 80.5000°W)
Time: 04:54:57
(UTC-04:00)

ISS - All Passes

Search period start: 07 July 2015 00:00
Search period end: 17 July 2015 00:00
Orbit: 398 x 402 km, 51.6° (Epoch: 06 July)

Date Brightness Start Highest point End Pass type
(mag) Time Alt. Az. Time Alt. Az. Time Alt. Az.
07 Jul - 06:46:04 10° SSE 06:47:08 11° SE 06:48:18 10° ESE daylight
07 Jul - 08:19:51 10° SW 08:23:06 88° SSE 08:26:21 10° ENE daylight
07 Jul - 09:57:05 10° WNW 09:59:48 24° NNW 10:02:32 10° NE daylight
07 Jul - 11:34:30 10° NW 11:36:58 19° N 11:39:26 10° NE daylight
07 Jul - 13:10:48 10° NW 13:13:56 44° NNE 13:17:03 10° E daylight
07 Jul - 14:47:25 10° WNW 14:50:12 26° SW 14:52:57 10° SSE daylight
08 Jul - 07:26:26 10° SW 07:29:33 46° SE 07:32:42 10° ENE daylight
08 Jul - 09:03:05 10° W 09:06:02 31° NNW 09:09:00 10° NE daylight
08 Jul - 10:40:43 10° NW 10:43:07 19° N 10:45:31 10° NE daylight
08 Jul - 12:17:17 10° NW 12:20:12 30° NNE 12:23:08 10° E daylight
08 Jul - 13:53:34 10° WNW 13:56:43 50° SW 13:59:52 10° SE daylight
09 Jul - 06:33:24 10° SSW 06:36:04 24° SE 06:38:48 10° E daylight
09 Jul - 08:09:10 10° WSW 08:12:19 47° NNW 08:15:29 10° NE daylight
09 Jul - 09:46:46 10° WNW 09:49:15 20° N 09:51:44 10° NE daylight
09 Jul - 11:23:44 10° NW 11:26:25 23° NNE 11:29:06 10° ENE daylight
09 Jul - 12:59:54 10° WNW 13:03:09 85° NNE 13:06:24 10° ESE daylight
09 Jul - 14:37:40 10° WSW 14:39:09 12° SW 14:40:31 10° SSW daylight
10 Jul - 05:41:06 10° SSE 05:42:38 13° SE 05:44:17 10° ESE daylight
10 Jul - 07:15:24 10° WSW 07:18:39 82° NNW 07:21:55 10° ENE daylight
10 Jul - 08:52:43 10° WNW 08:55:24 23° NNW 08:58:05 10° NE daylight
10 Jul - 10:30:04 10° NW 10:32:34 20° N 10:35:03 10° ENE daylight
10 Jul - 12:06:19 10° NW 12:09:29 49° NNE 12:12:39 10° ESE daylight
10 Jul - 13:43:03 10° W 13:45:43 23° SW 13:48:19 10° S daylight
11 Jul - 06:21:53 10° SW 06:25:03 53° SE 06:28:14 10° ENE daylight
11 Jul - 07:58:40 10° W 08:01:35 29° NNW 08:04:30 10° NE daylight
11 Jul - 09:36:16 10° NW 09:38:40 19° N 09:41:04 10° NE daylight
11 Jul - 11:12:45 10° NW 11:15:44 32° NNE 11:18:43 10° E daylight
11 Jul - 12:49:05 10° WNW 12:52:12 44° SW 12:55:17 10° SE daylight
12 Jul - 05:28:42 10° SSW 05:31:30 27° SE 05:34:20 10° ENE daylight
12 Jul - 07:04:39 10° W 07:07:47 43° NNW 07:10:55 10° NE daylight
12 Jul - 08:42:18 10° NW 08:44:45 19° N 08:47:13 10° NE daylight
12 Jul - 10:19:10 10° NW 10:21:54 24° NNE 10:24:39 10° ENE daylight
12 Jul - 11:55:21 10° WNW 11:58:36 85° SW 12:01:50 10° SE daylight
12 Jul - 13:33:38 10° WSW 13:34:33 11° SW 13:35:19 10° SW daylight
13 Jul - 04:36:07 10° S 04:38:00 15° SE 04:39:58 10° E visible
13 Jul - 06:10:49 10° WSW 06:14:03 73° NNW 06:17:19 10° NE daylight
13 Jul - 07:48:13 10° WNW 07:50:51 22° NNW 07:53:29 10° NE daylight
13 Jul - 09:25:29 10° NW 09:28:01 20° N 09:30:32 10° ENE daylight
13 Jul - 11:01:42 10° NW 11:04:55 54° NNE 11:08:05 10° ESE daylight
13 Jul - 12:38:34 10° W 12:41:04 20° SW 12:43:32 10° S daylight
14 Jul - 05:17:11 10° SW 05:20:23 60° SE 05:23:36 10° ENE visible
14 Jul - 06:54:06 10° W 06:56:58 28° NNW 06:59:50 10° NE daylight
14 Jul - 08:31:40 10° NW 08:34:04 19° N 08:36:29 10° NE daylight
14 Jul - 10:08:05 10° NW 10:11:07 35° NNE 10:14:08 10° E daylight
14 Jul - 11:44:29 10° WNW 11:47:32 38° SW 11:50:33 10° SSE daylight
15 Jul - 04:23:53 10° SSW 04:26:47 31° SE 04:29:43 10° ENE visible
15 Jul - 06:00:01 10° W 06:03:07 39° NNW 06:06:12 10° NE daylight
15 Jul - 07:37:40 10° NW 07:40:07 19° N 07:42:33 10° NE daylight
15 Jul - 09:14:27 10° NW 09:17:14 25° NNE 09:20:02 10° ENE daylight
15 Jul - 10:50:39 10° WNW 10:53:53 75° SW 10:57:07 10° SE daylight
16 Jul - 03:31:05 10° S 03:33:14 17° SE 03:35:27 10° E visible
16 Jul - 05:06:05 10° WSW 05:09:19 65° NNW 05:12:34 10° NE visible
16 Jul - 06:43:34 10° WNW 06:46:09 21° N 06:48:45 10° NE daylight
16 Jul - 08:20:45 10° NW 08:23:19 21° N 08:25:53 10° ENE daylight
16 Jul - 09:56:57 10° NW 10:00:10 60° NNE 10:03:22 10° ESE daylight
16 Jul - 11:33:57 10° W 11:36:17 18° SW 11:38:33 10° S daylight
